User: anonymous
Location: Fort Wayne
(41.1310°N, 85.1290°W)
Time: 06:16:49
(UTC-04:00)
Language:

Cosmos 1980 - Orbit

View from above orbital plane
View from above orbital plane
View from above satellite
View from above satellite

Ground track
Ground track

The orbit data is extracted from the following two-line orbital elements,

1 19649U 88102A   14273.46481143  .00000377  00000-0  22128-3 0  8754
2 19649 071.0025 345.0617 0005442 355.7743 004.3332 14.14547853334468
Epoch (UTC): 30 September 2014 11:09:19
Eccentricity: 0.0005442
inclination: 71.0025°
perigee height: 840 km
apogee height: 848 km
right ascension of ascending node: 345.0617°
argument of perigee: 355.7743°
revolutions per day: 14.14547853
mean anomaly at epoch: 4.3332°
orbit number at epoch: 33446

The dashed part of the orbit path shows where the satellite is in the earth's shadow,  

DLR